Terminal Aerodrome Forecast
Issued by NWS Tiyan, Guam

Home | Current Version | Previous Version | Text Only | Print | Product List | Glossary On
Versions: 1 2 3 4 5 6 7 8 9 10 11 12 13 14 15 16 17 18 19 20 21 22 23 24 25
000
FTPQ31 PGUM 260500
TAFPQ
TAF
PGUM 260537Z 2606/2712 08013G23KT P6SM VCSH SCT018 BKN050
     FM260800 08011KT P6SM VCSH SCT020 SCT120=

USA.gov is the U.S. government's official web portal to all federal, state and local government web resources and services.